Miscellaneous Local Product
Issued by NWS Hastings, NE

Home | Current Version | Previous Version | Graphics & Text | Print | Product List | Glossary On
Versions: 1 2 3 4 5 6 7 8 9 10 11 12 13 14 15 16 17 18 19 20 21 22 23 24 25 26 27 28 29 30 31 32 33 34 35 36 37 38 39 40 41 42 43 44 45 46 47 48 49 50
000
AXUS43 KGID 262002
MISGRI

GID CWA HOURLY WEATHER ROUNDUP
NATIONAL WEATHER SERVICE HASTINGS NE
300 PM CDT SUN MAR 26 2017

NOTE: "FAIR" INDICATES FEW OR NO CLOUDS BELOW 12,000 FEET WITH NO
SIGNIFICANT WEATHER AND/OR OBSTRUCTIONS TO VISIBILITY.

...SOUTH CENTRAL NEBRASKA...

CITY           SKY/WX    TMP DP  RH WIND       PRES   REMARKS
GRAND ISLAND   CLOUDY    50  44  80 VRB5      29.90F
HASTINGS       CLOUDY    50  43  77 N7        29.90F
KEARNEY        CLOUDY    46  39  76 CALM      29.90F
ORD            CLOUDY    49  40  71 CALM      29.89F
YORK           CLOUDY    46  45  93 NE6       29.91S
AURORA         CLOUDY    47  44  89 NE6       29.90F
LEXINGTON      CLOUDY    48  41  76 N3        29.88F
HOLDREGE       CLOUDY    47  41  77 CALM      29.89S
HEBRON         CLOUDY    48  43  82 N5        29.90F

...NEBRASKA PANHANDLE...

CITY           SKY/WX    TMP DP  RH WIND       PRES   REMARKS
CHADRON        CLOUDY    49  38  65 NE9       29.93S
ALLIANCE       MOSUNNY   55  34  45 VRB6      29.88F
SCOTTSBLUFF    CLOUDY    54  34  46 N9        29.90S
SIDNEY         CLOUDY    49  36  61 VRB5      29.90S

...WESTERN AND NORTH CENTRAL NEBRASKA...

CITY           SKY/WX    TMP DP  RH WIND       PRES   REMARKS
VALENTINE      CLOUDY    51  36  56 E5        29.89R
AINSWORTH      CLOUDY    51  42  71 CALM      29.89S
ONEILL         CLOUDY    44  43  99 CALM      29.92F
BROKEN BOW     MOSUNNY   54  41  61 CALM      29.87F
IMPERIAL       CLOUDY    53  42  66 CALM      29.87F
NORTH PLATTE   CLOUDY    53  41  63 NW5       29.87F
MCCOOK         MOSUNNY   50  41  71 VRB3      29.88F

...EASTERN NEBRASKA...

CITY           SKY/WX    TMP DP  RH WIND       PRES   REMARKS
NORFOLK        CLOUDY    45  39  79 N6        29.90F
SO SIOUX CITY  CLOUDY    46  40  79 NW8       29.92F
TEKAMAH        CLOUDY    47  40  76 N8        29.91F
COLUMBUS       CLOUDY    45  39  81 N6        29.92S
ALBION         CLOUDY    48  42  79 N6        29.90F
OMAHA EPPLEY   CLOUDY    48  40  73 NW5       29.91F
OFFUTT AFB     CLOUDY    48  40  75 VRB3      29.90F
MILLARD        CLOUDY    49  42  77 N6        29.91F
LINCOLN        CLOUDY    46  42  86 N5        29.93F
NEBRASKA CITY  CLOUDY    46  41  85 CALM      29.91F
BEATRICE       CLOUDY    47  43  86 NW3       29.91F
FALLS CITY     CLOUDY    47  41  80 CALM      29.92S

...NORTHERN KANSAS...

CITY           SKY/WX    TMP DP  RH WIND       PRES   REMARKS
GOODLAND       LGT RAIN  46  41  82 NE13      29.86S
HILL CITY      CLOUDY    47  42  83 E12       29.87F
NORTON         CLOUDY    48  37  66 NE7       29.87F
PHILLIPSBURG   CLOUDY    50  41  71 NE5       29.89F
HAYS             N/A     49  41  74 NE21      29.82F
RUSSELL        CLOUDY    47  41  80 NE14      29.84F
CONCORDIA      CLOUDY    49  44  83 E6        29.89F
SALINA         CLOUDY    53  44  71 E10       29.87F
TOPEKA         CLOUDY    52  45  77 W6        29.91F



USA.gov is the U.S. government's official web portal to all federal, state and local government web resources and services.